Regional Weather Roundup
Issued by NWS

Home | Current Version | Previous Version | Text Only | Print | Product List | Glossary Off
Versions: 1 2 3 4 5 6 7 8 9 10 11 12 13 14 15 16 17 18 19 20 21 22 23 24 25 26 27 28 29 30 31 32 33 34 35 36 37 38 39 40 41 42 43 44 45 46 47 48 49 50

000
ASUS43 KIND 271109
RWRIN

WEATHER ROUNDUP FOR INDIANA
NATIONAL WEATHER SERVICE INDIANAPOLIS IN
600 AM EST THU NOV 27 2014

NOTE: "FAIR" INDICATES FEW OR NO CLOUDS BELOW 12,000 FEET WITH NO
SIGNIFICANT WEATHER AND/OR OBSTRUCTIONS TO VISIBILITY.

* - STATION DOES NOT REPORT WEATHER SUCH AS PRECIPITATION OR FOG.

+ - STATION NOT QUALITY CONTROLLED BY THE NATIONAL WEATHER SERVICE.
    USE DATA WITH CAUTION...ESPECIALLY DEWPOINT AND RELATIVE
    HUMIDITY OBSERVATIONS.

INZ001>003-010>013-019-020-271200-
NORTHWEST INDIANA

CITY           SKY/WX    TMP DP  RH WIND       PRES   REMARKS
GARY /AIRPORT/ CLOUDY    28  23  80 W9        30.24R WCI  20
KNOX *+        CLOUDY    29  26  88 NW10      30.19R WCI  20
LA PORTE +     FLURRIES  32  27  83 NW7       30.19S WCI  26
MICHIGAN CITY+ FLURRIES  32  27  80 NW8       30.20R WCI  25
MONTICELLO +   CLOUDY    27  25  90 NW9       30.22R WCI  18
RENSSELAER +   CLOUDY    30  30 100 W13       30.24R FOG     WCI  20
VALPARAISO     CLOUDY    28  22  78 NW13      30.21R WCI  17

$$

LMZ046-743>745-271200-
SOUTHERN LAKE MICHIGAN

STATION/POSITION TIME  TEMP WIND        PRES
                       AIR  DIR/SP/G
                 (UTC) (F)  (DEG/KT/KT) (MB)
MICHIGAN CITY    1100   32  290/ 21/ 24   N/A

$$

INZ004-005-014>016-021>024-271200-
NORTH CENTRAL INDIANA

CITY           SKY/WX    TMP DP  RH WIND       PRES   REMARKS
GOSHEN         CLOUDY    27  22  81 W6        30.18R WCI  20
LOGANSPORT +   FLURRIES  28  23  80 NW6       30.22R WCI  22
PERU/GRISSOM   CLOUDY    27  25  93 W8        30.20R WCI  18
ROCHESTER +    MOCLDY    30  27  86 W7        30.20R WCI  23
SOUTH BEND     LGT SNOW  28  24  85 SW3       30.19R FOG
WARSAW +       CLOUDY    28  23  80 W7        30.19R WCI  21

$$

INZ006>009-017-018-025>027-271200-
NORTHEAST INDIANA

CITY           SKY/WX    TMP DP  RH WIND       PRES   REMARKS
ANGOLA *+      CLOUDY    27  23  86 NW5       30.14R WCI  21
AUBURN +       CLOUDY    30  23  74 W8        30.17R WCI  23
FORT WAYNE     CLOUDY    27  22  81 NW7       30.17R WCI  19
HUNTINGTON +   CLOUDY    27  22  84 NW5       30.17R WCI  21

$$

INZ028-029-035-036-043>045-051>053-271200-
WEST CENTRAL INDIANA

CITY           SKY/WX    TMP DP  RH WIND       PRES   REMARKS
GREENCASTLE +  CLEAR     25  21  86 NW7       30.24R WCI  17
LAFAYETTE      CLOUDY    26  23  88 NW7       30.24R WCI  18
TERRE HAUTE    CLEAR     26  19  74 NW5       30.27R WCI  20

$$

INZ030>032-037>040-046>048-054>057-064-065-271200-
CENTRAL INDIANA

CITY           SKY/WX    TMP DP  RH WIND       PRES   REMARKS
CP ATTERBURY + CLOUDY    30  23  74 NW7       30.21R WCI  23
FRANKFORT +    MOCLDY    25  23  91 W6        30.23R WCI  18
INDIANAPOLIS   PTCLDY    25  19  78 NW12      30.20R WCI  14
-EAGLE CREEK   CLEAR     25  20  81 NW10      30.20R WCI  15
KOKOMO *+      CLOUDY    27  19  74 NW10      30.20R WCI  17
MARION +         N/A     26  22  83 NW9       30.19R WCI  17
SHELBYVILLE    CLOUDY    29  21  72 NW8       30.18R WCI  21
ZIONSVILLE +   MOCLDY    25  20  81 NW9       30.21R WCI  15

$$

INZ033-034-041-042-049-050-058-059-271200-
EAST CENTRAL INDIANA

CITY           SKY/WX    TMP DP  RH WIND       PRES   REMARKS
MUNCIE         PTCLDY    27  22  81 NW9       30.16R WCI  18

$$

INZ060-061-067>069-081>083-085>088-271200-
SOUTHWEST INDIANA

CITY           SKY/WX    TMP DP  RH WIND       PRES   REMARKS
EVANSVILLE     CLOUDY    32  27  81 NW8G17    30.29R WCI  25
HUNTINGBURG *+ CLOUDY    30  27  86 NW13      30.26R WCI  20
WASHINGTON +   CLOUDY    30  26  86 N12       30.26R WCI  20

$$

INZ062-063-066-070>080-084-089>092-271200-
SOUTH CENTRAL AND SOUTHEAST INDIANA

CITY           SKY/WX    TMP DP  RH WIND       PRES   REMARKS
BLOOMINGTON    CLOUDY    28  21  75 VRB7      30.22R WCI  21

$$




USA.gov is the U.S. government's official web portal to all federal, state and local government web resources and services.